FENGYUN 1C DEB, 30321

Orbit data source: Space-Track

FENGYUN 1C DEB, 30321 is space debris in SSO originally from a launch on Mon, 10 May 1999 UTC launched from the Taiyaun Space Center, China (TSC). Fengyun 1C debris stems from the Chinese weather satellite Fengyun-1C, which was intentionally destroyed by a Chinese anti-satellite missile in 2007. This event dramatically increased the amount of space debris, with thousands of trackable fragments posing hazards to satellites and human spaceflight. The Fengyun 1C debris cloud has become a focal point in discussions about space sustainability and the need for international regulations to prevent the creation of new debris.

Loading next visibility...
Identifier
30321, 1999-025AAJ
Orbit
SSO
Country
Flag of CNCN / PRC
Related business
Manufacturer
Unknown
Mission
Spacecraft
Bus & Motor
Unknown
Mass
Unknown
Launch date (UTC)
1999-05-10 (27 years ago)
Launch vehicle
Unknown
Launch site
Taiyaun Space Center, China (TSC)
Object type
Payload
Rocket body
Debris
Shape & HBR
Unknown shape, 0.1 m
Radar Cross Section
Small (<0.1 m²)

Expand to show TLE details & history
Last TLE update: 12 hours ago

TLE from 12 hours ago
0 FENGYUN 1C DEB
1 30321U 99025AAJ 26094.99780655  .00000720  00000-0  37497-3 0  9996
2 30321  98.6624  96.0134 0059445 272.2938 149.2022 14.16807371991477
Epoch: 2026-04-04T23:56Z
TLE epoch observation values (Epoch: 2026-04-04T23:56:50.485Z)
Latitude
60.73961°
Longitude
-112.20035°
Altitude
883.409 km
Speed
7.397 km/s
True Right ascension
05h 21m 16s
True Declination
60° 35' 43"
Sunlit
Object was in daylight at epoch
Visualization orbit readout
Latitude
Unknown
Longitude
Unknown
Altitude
Unknown
Speed
Unknown
Apparent Right ascension
Unknown
Apparent Declination
Unknown
Sunlit
N/A
Visualization observer readout
Local Sidereal Time
18:21:27
Azimuth
Unknown
Elevation
Unknown
Doppler factor
Unknown
Orbital elements
Apogee altitude
876.199 km
Perigee altitude
790.462 km
Semi-major axis
7,211.468 km
Eccentricity
0.00594
Inclination
98.6624°
RAAN
96.0134°
Arg. of periapsis
272.2938°
True anomaly
149.54876°
Mean anomaly
149.2022°
Eccentric anomaly
149.3757°
Mean motion
3.54411 °/min
Orbital period
101.58 mins
BSTAR
0.00037497
Loading maneuver chart data...
Computing Atmospheric mass density...

Documentation

Showing up to 5 results
|